Location: Casilda
(33.0440°S, 61.1680°W)
Time: 03:16:23
(UTC-03:00)

ISS - Pass Details

Date: 16 May 2018
Orbit: 402 x 407 km, 51.6° (Epoch: 24 May)

Event Time Altitude Azimuth Distance (km) Brightness Sun altitude
Rises 19:31:06 0° 236° (SW) 2,357 0.7 -16.5°
Reaches altitude 10° 19:33:19 10° 245° (WSW) 1,488 -0.2 -16.9°
Maximum altitude 19:36:21 32° 311° (NW) 728 -2.0 -17.5°
Drops below altitude 10° 19:39:20 10° 16° (NNE) 1,467 -1.0 -18.1°
Enters shadow 19:40:10 - 21° (NNE) 1,784 -0.7 -18.3°
